Regional Weather Roundup
Issued by NWS Mobile, AL

Home | Current Version | Previous Version | Text Only | Print | Product List | Glossary On
Versions: 1 2 3 4 5 6 7 8 9 10 11 12 13 14 15 16 17 18 19 20 21 22 23 24 25 26 27 28 29 30 31 32 33 34 35 36 37 38 39 40 41 42 43 44 45 46 47 48 49 50
000
ASUS44 KMOB 160510
RWRMOB
REGIONAL WEATHER ROUNDUP
NATIONAL WEATHER SERVICE MOBILE AL
1200 AM CDT TUE SEP 16 2014

NOTE: "FAIR" INDICATES FEW OR NO CLOUDS BELOW 12,000 FEET WITH NO
      SIGNIFICANT WEATHER AND/OR OBSTRUCTIONS TO VISIBILITY.

  * THESE STATIONS ARE PART OF THE UNIVERSITY OF SOUTH ALABAMA
    MESONET AND ARE NOT UNDER NWS OR FAA QUALITY CONTROL.

ALZ061>064-160600-
COASTAL ALABAMA

CITY           SKY/WX    TMP DP  RH WIND       PRES   REMARKS
MOBILE REG APT CLOUDY    77  76  96 CALM      30.09F
BROOKLEY FIELD CLOUDY    80  77  90 N5        30.10S
USA CAMPUS*      N/A     77  75  94 CALM      30.08F
DOG RIVER*       N/A     81  77  89 N3        30.09S


CITY           SKY/WX    TMP DP  RH WIND       PRES   REMARKS
MOUNT VERNON*    N/A     72  70  94 CALM      30.09S
SARALAND*      NOT AVBL
BAY MINETTE*   NOT AVBL
LOXLEY*          N/A    N/A N/A N/A N2        30.09F
ROBERTSDALE*     N/A    N/A N/A N/A N2        30.09S
FAIRHOPE*        N/A     75  75 100 N3        30.08S
ELBERTA*         N/A     75  63  64 N2        30.08S
FOLEY*         NOT AVBL
GRAND BAY*       N/A     75  75 100 CALM      30.06F
DAUPHIN ISLND* NOT AVBL
BON SCOUR NWR* NOT AVBL
GULF SHORES    MOCLDY    76  75  98 CALM      30.07F

$$

ALZ051>060-160600-
INTERIOR SOUTHWEST AND SOUTH CENTRAL ALABAMA

CITY           SKY/WX    TMP DP  RH WIND       PRES   REMARKS
GREENVILLE     CLOUDY    75  72  88 CALM      30.08F FOG
EVERGREEN      CLOUDY    77  74  90 S3        30.09F
CASTLEBERRY*   NOT AVBL
ATMORE*          N/A     75  75 100 CALM      30.11F
DIXIE*         NOT AVBL
ANDALUSIA/OPP  CLOUDY    80  74  81 CALM      30.09S
ANDALUSIA*     NOT AVBL
FLORALA APT    CLOUDY    76  74  93 CALM      30.10F
FLORALA*         N/A     75  72  88 CALM      30.06F

$$

FLZ001>006-160600-
WESTERN FLORIDA PANHANDLE

CITY           SKY/WX    TMP DP  RH WIND       PRES   REMARKS
PENSACOLA      CLOUDY    75  75 100 CALM      30.08F
NAS PENSACOLA  CLOUDY    77  75  93 CALM      30.07F
MILTON         CLOUDY    75  72  90 N5        30.09F
WHTNG S FIELD  CLOUDY    76  74  93 NW3       30.09F


CITY           SKY/WX    TMP DP  RH WIND       PRES   REMARKS
WALNUT HILL*   NOT AVBL
JAY*           NOT AVBL
DUKE FIELD     PTCLDY    77  77 100 NW2       30.08F
CRESTVIEW      CLOUDY    77  75  93 CALM      30.10F
VALPARAISO     MOCLDY    79  76  89 CALM      30.08F
DESTIN         MOCLDY    81  77  88 CALM      30.08F

$$

MSZ076-079-160600-
INTERIOR SOUTHEAST MISSISSIPPI

CITY           SKY/WX    TMP DP  RH WIND       PRES   REMARKS
LEAKESVILLE*     N/A     72  70  94 CALM        N/A
AGRICOLA*      NOT AVBL

$$

MARINE OBSERVATIONS

STATION/POSITION TIME  TEMP    WIND        PRES    WAVE
                       AIR SEA DIR/SP/G            HT/PER
                 (UTC) (F)     (DEG/KT/KT) (MB)    (FT/S)
PASCAGOULA       0500   81      70/  2/  3 1018.1F
PETIT BOIS ISLND 0500   84     280/  6/  7 1018.6F
GRAND BAY        0400   81      10/  3     1020.0S
KATRINA CUT      0400   84     240/  5     1019.6R
CEDAR POINT      0400   84     230/  4     1019.3R
E DAUPHIN ISLAND 0500   83     280/  3/  4 1018.4F
MIDDLE BAY LIGHT 0400   84     280/  4     1018.3R
USCG MOBILE BAY  0500   81 87   50/  4/  5 1017.8
STATE DOCKS      0500   81 87              1018.6
MEAHER PARK      0400   80      20/  1     1018.6S
WEEKS BAY        0400   76                   N/A
FORT MORGAN      0300   83     270/  7/  9   N/A
12 S ORANGE BCH  0500   84 86  260/  6/  8 1018.5F   3/ 6
PENSACOLA BAY    0500   82 87   CALM  /  1 1018.8
64 S DAUPHIN ISL 0437   83 86  240/  8/ 10 1019.6R   3/ 7
67 S FORT MORGAN 0400   83     VRB  4      1019.0F

$$

SELECTED LOCATIONS ACROSS THE REGION

CITY           SKY/WX    TMP DP  RH WIND       PRES   REMARKS
NEW ORLEANS    MOCLDY    78  75  90 CALM      30.09S
GULFPORT       PTCLDY    78  75  90 N5        30.07F
PASCAGOULA AP  MOCLDY    76  75  97 CALM      30.07F
PASCAGOULA*      N/A     79  77  94 CALM      30.07F
HATTIESBURG    PTCLDY    76  73  91 CALM      30.10S
LAUREL         CLEAR    N/A N/A N/A CALM      30.11S
MERIDIAN       CLOUDY    75  72  90 CALM      30.09F
JACKSON        PTCLDY    75  72  90 CALM      30.10S
MONTGOMERY     MOCLDY    75  73  93 CALM      30.09F
TROY           CLOUDY    76  75  97 CALM      30.10S
KINSTON*       NOT AVBL
GENEVA*          N/A     73  72  94 CALM      30.10F
ASHFORD*       NOT AVBL
DOTHAN         CLOUDY    75  74  96 SE3       30.12F
PANAMA CITY    MOCLDY    78  75  90 CALM      30.08F

$$




USA.gov is the U.S. government's official web portal to all federal, state and local government web resources and services.